Location: Bailleul
(50.3375°N, 2.8513°E)
Time: 04:39:58
(UTC+00:00)

Cosmos 1633 - Pass Details

Date: 19 April 2021
Orbit: 461 x 478 km, 82.5° (Epoch: 09 May)

Event Time Altitude Azimuth Distance (km) Brightness Sun altitude
Rises 20:28:03 0° 351° (N) 2,542 7.0 -14.5°
Reaches altitude 10° 20:30:10 10° 353° (N) 1,656 5.9 -14.7°
Maximum altitude 20:33:47 75° 80° (E) 495 2.4 -15.2°
Enters shadow 20:35:32 28° 161° (SSE) 912 3.4 -15.4°
